Tracking 18987 objects as of 26-Feb-2018
HD Live streaming from Space Station
objects crossing your sky now

CZ-2C DEB

Track CZ-2C DEB now!
10-day predictions


NORAD ID: 36092
Int'l Code: 2009-061E
Perigee: 697.4 km
Apogee: 911.3 km
Inclination: 98.5 °
Period: 100.8 minutes
Semi major axis: 7175 km
RCS: 0.0891 m2 (small)
Launch date: November 12, 2009
Source: People's Republic of China (PRC)
Launch site: Jiuquan Satellite Launch Center, China (JSC)

Note: This is SATELLITE DEBRIS
aabbcc
Your satellite tracking list
Your tracking list is empty




NASA's NSSDC Master Catalog

Two Line Element Set (TLE):
1 36092U 09061E   18056.86589542  .00000279  00000-0  11564-3 0  9991
2 36092  98.4668  35.7387 0149052 297.9497 118.0510 14.28351244431136
Source of the keplerian elements: AFSPC